Index of /20260503/WXO-DD/model_rdps/10km/12/035
Name Last modified Size Description
Parent Directory -
20260503T12Z_MSC_RDPS_AbsoluteVorticity_IsbL-0250_RLatLon0.09_PT035H.grib2 2026-05-03 15:02 619K
20260503T12Z_MSC_RDPS_AbsoluteVorticity_IsbL-0500_RLatLon0.09_PT035H.grib2 2026-05-03 15:02 571K
20260503T12Z_MSC_RDPS_AbsoluteVorticity_IsbL-0700_RLatLon0.09_PT035H.grib2 2026-05-03 15:02 620K
20260503T12Z_MSC_RDPS_AbsoluteVorticity_IsbL-0850_RLatLon0.09_PT035H.grib2 2026-05-03 15:02 788K
20260503T12Z_MSC_RDPS_AirTemp_AGL-120m_RLatLon0.09_PT035H.grib2 2026-05-03 15:02 390K
20260503T12Z_MSC_RDPS_AirTemp_AGL-2m_RLatLon0.09_PT035H.grib2 2026-05-03 15:02 623K
20260503T12Z_MSC_RDPS_AirTemp_AGL-40m_RLatLon0.09_PT035H.grib2 2026-05-03 15:02 398K
20260503T12Z_MSC_RDPS_AirTemp_AGL-80m_RLatLon0.09_PT035H.grib2 2026-05-03 15:02 393K
20260503T12Z_MSC_RDPS_AirTemp_IsbL-0001_RLatLon0.09_PT035H.grib2 2026-05-03 15:02 316K
20260503T12Z_MSC_RDPS_AirTemp_IsbL-0005_RLatLon0.09_PT035H.grib2 2026-05-03 15:02 293K
20260503T12Z_MSC_RDPS_AirTemp_IsbL-0010_RLatLon0.09_PT035H.grib2 2026-05-03 15:02 302K
20260503T12Z_MSC_RDPS_AirTemp_IsbL-0020_RLatLon0.09_PT035H.grib2 2026-05-03 15:02 319K
20260503T12Z_MSC_RDPS_AirTemp_IsbL-0030_RLatLon0.09_PT035H.grib2 2026-05-03 15:02 338K
20260503T12Z_MSC_RDPS_AirTemp_IsbL-0050_RLatLon0.09_PT035H.grib2 2026-05-03 15:02 320K
20260503T12Z_MSC_RDPS_AirTemp_IsbL-0100_RLatLon0.09_PT035H.grib2 2026-05-03 15:02 433K
20260503T12Z_MSC_RDPS_AirTemp_IsbL-0150_RLatLon0.09_PT035H.grib2 2026-05-03 15:02 424K
20260503T12Z_MSC_RDPS_AirTemp_IsbL-0175_RLatLon0.09_PT035H.grib2 2026-05-03 15:02 414K
20260503T12Z_MSC_RDPS_AirTemp_IsbL-0200_RLatLon0.09_PT035H.grib2 2026-05-03 15:02 416K
20260503T12Z_MSC_RDPS_AirTemp_IsbL-0225_RLatLon0.09_PT035H.grib2 2026-05-03 15:02 420K
20260503T12Z_MSC_RDPS_AirTemp_IsbL-0250_RLatLon0.09_PT035H.grib2 2026-05-03 15:02 426K
20260503T12Z_MSC_RDPS_AirTemp_IsbL-0275_RLatLon0.09_PT035H.grib2 2026-05-03 15:02 407K
20260503T12Z_MSC_RDPS_AirTemp_IsbL-0300_RLatLon0.09_PT035H.grib2 2026-05-03 15:02 412K
20260503T12Z_MSC_RDPS_AirTemp_IsbL-0350_RLatLon0.09_PT035H.grib2 2026-05-03 15:02 427K
20260503T12Z_MSC_RDPS_AirTemp_IsbL-0400_RLatLon0.09_PT035H.grib2 2026-05-03 15:02 431K
20260503T12Z_MSC_RDPS_AirTemp_IsbL-0450_RLatLon0.09_PT035H.grib2 2026-05-03 15:02 405K
20260503T12Z_MSC_RDPS_AirTemp_IsbL-0500_RLatLon0.09_PT035H.grib2 2026-05-03 15:02 454K
20260503T12Z_MSC_RDPS_AirTemp_IsbL-0550_RLatLon0.09_PT035H.grib2 2026-05-03 15:02 438K
20260503T12Z_MSC_RDPS_AirTemp_IsbL-0600_RLatLon0.09_PT035H.grib2 2026-05-03 15:02 454K
20260503T12Z_MSC_RDPS_AirTemp_IsbL-0650_RLatLon0.09_PT035H.grib2 2026-05-03 15:02 468K
20260503T12Z_MSC_RDPS_AirTemp_IsbL-0700_RLatLon0.09_PT035H.grib2 2026-05-03 15:02 383K
20260503T12Z_MSC_RDPS_AirTemp_IsbL-0750_RLatLon0.09_PT035H.grib2 2026-05-03 15:02 413K
20260503T12Z_MSC_RDPS_AirTemp_IsbL-0800_RLatLon0.09_PT035H.grib2 2026-05-03 15:02 457K
20260503T12Z_MSC_RDPS_AirTemp_IsbL-0850_RLatLon0.09_PT035H.grib2 2026-05-03 15:02 507K
20260503T12Z_MSC_RDPS_AirTemp_IsbL-0875_RLatLon0.09_PT035H.grib2 2026-05-03 15:02 524K
20260503T12Z_MSC_RDPS_AirTemp_IsbL-0900_RLatLon0.09_PT035H.grib2 2026-05-03 15:02 529K
20260503T12Z_MSC_RDPS_AirTemp_IsbL-0925_RLatLon0.09_PT035H.grib2 2026-05-03 15:02 525K
20260503T12Z_MSC_RDPS_AirTemp_IsbL-0950_RLatLon0.09_PT035H.grib2 2026-05-03 15:02 523K
20260503T12Z_MSC_RDPS_AirTemp_IsbL-0970_RLatLon0.09_PT035H.grib2 2026-05-03 15:02 515K
20260503T12Z_MSC_RDPS_AirTemp_IsbL-0985_RLatLon0.09_PT035H.grib2 2026-05-03 15:02 501K
20260503T12Z_MSC_RDPS_AirTemp_IsbL-1000_RLatLon0.09_PT035H.grib2 2026-05-03 15:02 491K
20260503T12Z_MSC_RDPS_AirTemp_IsbL-1015_RLatLon0.09_PT035H.grib2 2026-05-03 15:02 492K
20260503T12Z_MSC_RDPS_Albedo_Sfc_RLatLon0.09_PT035H.grib2 2026-05-03 15:02 152K
20260503T12Z_MSC_RDPS_CAPE_Sfc_RLatLon0.09_PT035H.grib2 2026-05-03 15:02 1.8M
20260503T12Z_MSC_RDPS_CIN_Sfc_RLatLon0.09_PT035H.grib2 2026-05-03 15:02 1.3M
20260503T12Z_MSC_RDPS_CloudWater_EAtm_RLatLon0.09_PT035H.grib2 2026-05-03 15:02 224K
20260503T12Z_MSC_RDPS_ConvectivePrecip-Accum_Sfc_RLatLon0.09_PT035H.grib2 2026-05-03 15:02 1.0M
20260503T12Z_MSC_RDPS_DewPointDepression_AGL-2m_RLatLon0.09_PT035H.grib2 2026-05-03 15:02 418K
20260503T12Z_MSC_RDPS_DewPointDepression_IsbL-0001_RLatLon0.09_PT035H.grib2 2026-05-03 15:02 193
20260503T12Z_MSC_RDPS_DewPointDepression_IsbL-0005_RLatLon0.09_PT035H.grib2 2026-05-03 15:02 193
20260503T12Z_MSC_RDPS_DewPointDepression_IsbL-0010_RLatLon0.09_PT035H.grib2 2026-05-03 15:02 193
20260503T12Z_MSC_RDPS_DewPointDepression_IsbL-0020_RLatLon0.09_PT035H.grib2 2026-05-03 15:02 193
20260503T12Z_MSC_RDPS_DewPointDepression_IsbL-0030_RLatLon0.09_PT035H.grib2 2026-05-03 15:02 193
20260503T12Z_MSC_RDPS_DewPointDepression_IsbL-0050_RLatLon0.09_PT035H.grib2 2026-05-03 15:02 80K
20260503T12Z_MSC_RDPS_DewPointDepression_IsbL-0100_RLatLon0.09_PT035H.grib2 2026-05-03 15:02 118K
20260503T12Z_MSC_RDPS_DewPointDepression_IsbL-0150_RLatLon0.09_PT035H.grib2 2026-05-03 15:02 148K
20260503T12Z_MSC_RDPS_DewPointDepression_IsbL-0175_RLatLon0.09_PT035H.grib2 2026-05-03 15:02 185K
20260503T12Z_MSC_RDPS_DewPointDepression_IsbL-0200_RLatLon0.09_PT035H.grib2 2026-05-03 15:02 223K
20260503T12Z_MSC_RDPS_DewPointDepression_IsbL-0225_RLatLon0.09_PT035H.grib2 2026-05-03 15:02 263K
20260503T12Z_MSC_RDPS_DewPointDepression_IsbL-0250_RLatLon0.09_PT035H.grib2 2026-05-03 15:02 303K
20260503T12Z_MSC_RDPS_DewPointDepression_IsbL-0275_RLatLon0.09_PT035H.grib2 2026-05-03 15:02 309K
20260503T12Z_MSC_RDPS_DewPointDepression_IsbL-0300_RLatLon0.09_PT035H.grib2 2026-05-03 15:02 325K
20260503T12Z_MSC_RDPS_DewPointDepression_IsbL-0350_RLatLon0.09_PT035H.grib2 2026-05-03 15:02 333K
20260503T12Z_MSC_RDPS_DewPointDepression_IsbL-0400_RLatLon0.09_PT035H.grib2 2026-05-03 15:02 344K
20260503T12Z_MSC_RDPS_DewPointDepression_IsbL-0450_RLatLon0.09_PT035H.grib2 2026-05-03 15:02 348K
20260503T12Z_MSC_RDPS_DewPointDepression_IsbL-0500_RLatLon0.09_PT035H.grib2 2026-05-03 15:02 354K
20260503T12Z_MSC_RDPS_DewPointDepression_IsbL-0550_RLatLon0.09_PT035H.grib2 2026-05-03 15:02 364K
20260503T12Z_MSC_RDPS_DewPointDepression_IsbL-0600_RLatLon0.09_PT035H.grib2 2026-05-03 15:02 375K
20260503T12Z_MSC_RDPS_DewPointDepression_IsbL-0650_RLatLon0.09_PT035H.grib2 2026-05-03 15:02 386K
20260503T12Z_MSC_RDPS_DewPointDepression_IsbL-0700_RLatLon0.09_PT035H.grib2 2026-05-03 15:02 400K
20260503T12Z_MSC_RDPS_DewPointDepression_IsbL-0750_RLatLon0.09_PT035H.grib2 2026-05-03 15:02 415K
20260503T12Z_MSC_RDPS_DewPointDepression_IsbL-0800_RLatLon0.09_PT035H.grib2 2026-05-03 15:02 451K
20260503T12Z_MSC_RDPS_DewPointDepression_IsbL-0850_RLatLon0.09_PT035H.grib2 2026-05-03 15:02 478K
20260503T12Z_MSC_RDPS_DewPointDepression_IsbL-0875_RLatLon0.09_PT035H.grib2 2026-05-03 15:02 477K
20260503T12Z_MSC_RDPS_DewPointDepression_IsbL-0900_RLatLon0.09_PT035H.grib2 2026-05-03 15:02 466K
20260503T12Z_MSC_RDPS_DewPointDepression_IsbL-0925_RLatLon0.09_PT035H.grib2 2026-05-03 15:02 453K
20260503T12Z_MSC_RDPS_DewPointDepression_IsbL-0950_RLatLon0.09_PT035H.grib2 2026-05-03 15:02 444K
20260503T12Z_MSC_RDPS_DewPointDepression_IsbL-0970_RLatLon0.09_PT035H.grib2 2026-05-03 15:02 436K
20260503T12Z_MSC_RDPS_DewPointDepression_IsbL-0985_RLatLon0.09_PT035H.grib2 2026-05-03 15:02 430K
20260503T12Z_MSC_RDPS_DewPointDepression_IsbL-1000_RLatLon0.09_PT035H.grib2 2026-05-03 15:02 426K
20260503T12Z_MSC_RDPS_DewPointDepression_IsbL-1015_RLatLon0.09_PT035H.grib2 2026-05-03 15:02 417K
20260503T12Z_MSC_RDPS_DewPoint_AGL-2m_RLatLon0.09_PT035H.grib2 2026-05-03 15:02 308K
20260503T12Z_MSC_RDPS_DownwardLongwaveRadiationFlux-Accum_Sfc_RLatLon0.09_PT035H.grib2 2026-05-03 15:02 371K
20260503T12Z_MSC_RDPS_DownwardShortwaveRadiationFlux-Accum_NTAtm_RLatLon0.09_PT035H.grib2 2026-05-03 15:02 93K
20260503T12Z_MSC_RDPS_DownwardShortwaveRadiationFlux-Accum_Sfc_RLatLon0.09_PT035H.grib2 2026-05-03 15:02 542K
20260503T12Z_MSC_RDPS_FreezingRain-Accum1h_Sfc_RLatLon0.09_PT035H.grib2 2026-05-03 15:02 17K
20260503T12Z_MSC_RDPS_FreezingRain-Accum_Sfc_RLatLon0.09_PT035H.grib2 2026-05-03 15:02 120K
20260503T12Z_MSC_RDPS_GeopotentialHeight_IsbL-0001_RLatLon0.09_PT035H.grib2 2026-05-03 15:02 320K
20260503T12Z_MSC_RDPS_GeopotentialHeight_IsbL-0005_RLatLon0.09_PT035H.grib2 2026-05-03 15:02 341K
20260503T12Z_MSC_RDPS_GeopotentialHeight_IsbL-0010_RLatLon0.09_PT035H.grib2 2026-05-03 15:02 308K
20260503T12Z_MSC_RDPS_GeopotentialHeight_IsbL-0020_RLatLon0.09_PT035H.grib2 2026-05-03 15:02 404K
20260503T12Z_MSC_RDPS_GeopotentialHeight_IsbL-0030_RLatLon0.09_PT035H.grib2 2026-05-03 15:02 407K
20260503T12Z_MSC_RDPS_GeopotentialHeight_IsbL-0050_RLatLon0.09_PT035H.grib2 2026-05-03 15:02 312K
20260503T12Z_MSC_RDPS_GeopotentialHeight_IsbL-0100_RLatLon0.09_PT035H.grib2 2026-05-03 15:02 290K
20260503T12Z_MSC_RDPS_GeopotentialHeight_IsbL-0150_RLatLon0.09_PT035H.grib2 2026-05-03 15:02 233K
20260503T12Z_MSC_RDPS_GeopotentialHeight_IsbL-0175_RLatLon0.09_PT035H.grib2 2026-05-03 15:02 236K
20260503T12Z_MSC_RDPS_GeopotentialHeight_IsbL-0200_RLatLon0.09_PT035H.grib2 2026-05-03 15:02 238K
20260503T12Z_MSC_RDPS_GeopotentialHeight_IsbL-0225_RLatLon0.09_PT035H.grib2 2026-05-03 15:02 239K
20260503T12Z_MSC_RDPS_GeopotentialHeight_IsbL-0250_RLatLon0.09_PT035H.grib2 2026-05-03 15:02 240K
20260503T12Z_MSC_RDPS_GeopotentialHeight_IsbL-0275_RLatLon0.09_PT035H.grib2 2026-05-03 15:02 238K
20260503T12Z_MSC_RDPS_GeopotentialHeight_IsbL-0300_RLatLon0.09_PT035H.grib2 2026-05-03 15:02 238K
20260503T12Z_MSC_RDPS_GeopotentialHeight_IsbL-0350_RLatLon0.09_PT035H.grib2 2026-05-03 15:02 233K
20260503T12Z_MSC_RDPS_GeopotentialHeight_IsbL-0400_RLatLon0.09_PT035H.grib2 2026-05-03 15:02 304K
20260503T12Z_MSC_RDPS_GeopotentialHeight_IsbL-0450_RLatLon0.09_PT035H.grib2 2026-05-03 15:02 300K
20260503T12Z_MSC_RDPS_GeopotentialHeight_IsbL-0500_RLatLon0.09_PT035H.grib2 2026-05-03 15:02 296K
20260503T12Z_MSC_RDPS_GeopotentialHeight_IsbL-0550_RLatLon0.09_PT035H.grib2 2026-05-03 15:02 293K
20260503T12Z_MSC_RDPS_GeopotentialHeight_IsbL-0600_RLatLon0.09_PT035H.grib2 2026-05-03 15:02 263K
20260503T12Z_MSC_RDPS_GeopotentialHeight_IsbL-0650_RLatLon0.09_PT035H.grib2 2026-05-03 15:02 260K
20260503T12Z_MSC_RDPS_GeopotentialHeight_IsbL-0700_RLatLon0.09_PT035H.grib2 2026-05-03 15:02 258K
20260503T12Z_MSC_RDPS_GeopotentialHeight_IsbL-0750_RLatLon0.09_PT035H.grib2 2026-05-03 15:02 343K
20260503T12Z_MSC_RDPS_GeopotentialHeight_IsbL-0800_RLatLon0.09_PT035H.grib2 2026-05-03 15:02 349K
20260503T12Z_MSC_RDPS_GeopotentialHeight_IsbL-0850_RLatLon0.09_PT035H.grib2 2026-05-03 15:02 359K
20260503T12Z_MSC_RDPS_GeopotentialHeight_IsbL-0875_RLatLon0.09_PT035H.grib2 2026-05-03 15:02 363K
20260503T12Z_MSC_RDPS_GeopotentialHeight_IsbL-0900_RLatLon0.09_PT035H.grib2 2026-05-03 15:02 366K
20260503T12Z_MSC_RDPS_GeopotentialHeight_IsbL-0925_RLatLon0.09_PT035H.grib2 2026-05-03 15:02 281K
20260503T12Z_MSC_RDPS_GeopotentialHeight_IsbL-0950_RLatLon0.09_PT035H.grib2 2026-05-03 15:02 285K
20260503T12Z_MSC_RDPS_GeopotentialHeight_IsbL-0970_RLatLon0.09_PT035H.grib2 2026-05-03 15:02 289K
20260503T12Z_MSC_RDPS_GeopotentialHeight_IsbL-0985_RLatLon0.09_PT035H.grib2 2026-05-03 15:02 295K
20260503T12Z_MSC_RDPS_GeopotentialHeight_IsbL-1000_RLatLon0.09_PT035H.grib2 2026-05-03 15:02 304K
20260503T12Z_MSC_RDPS_GeopotentialHeight_IsbL-1015_RLatLon0.09_PT035H.grib2 2026-05-03 15:02 315K
20260503T12Z_MSC_RDPS_Humidex_Sfc_RLatLon0.09_PT035H.grib2 2026-05-03 15:02 2.4M
20260503T12Z_MSC_RDPS_IcePellets-Accum1h_Sfc_RLatLon0.09_PT035H.grib2 2026-05-03 15:02 6.5K
20260503T12Z_MSC_RDPS_IcePellets-Accum_Sfc_RLatLon0.09_PT035H.grib2 2026-05-03 15:02 18K
20260503T12Z_MSC_RDPS_KIndex_Sfc_RLatLon0.09_PT035H.grib2 2026-05-03 15:02 2.4M
20260503T12Z_MSC_RDPS_LatentHeatNetFlux_Sfc_RLatLon0.09_PT035H.grib2 2026-05-03 15:02 380K
20260503T12Z_MSC_RDPS_LiftedIndex-MU-VT_IsbL-0500_RLatLon0.09_PT035H.grib2 2026-05-03 15:02 2.4M
20260503T12Z_MSC_RDPS_NetLongwaveRadiationFlux-Accum_Sfc_RLatLon0.09_PT035H.grib2 2026-05-03 15:02 509K
20260503T12Z_MSC_RDPS_NetShortwaveRadiationFlux-Accum_Sfc_RLatLon0.09_PT035H.grib2 2026-05-03 15:02 543K
20260503T12Z_MSC_RDPS_PlanetaryBoundaryLayerHeight_Sfc_RLatLon0.09_PT035H.grib2 2026-05-03 15:02 1.0M
20260503T12Z_MSC_RDPS_Precip-Accum1h_Sfc_RLatLon0.09_PT035H.grib2 2026-05-03 15:02 1.3M
20260503T12Z_MSC_RDPS_Precip-Accum_Sfc_RLatLon0.09_PT035H.grib2 2026-05-03 15:02 2.0M
20260503T12Z_MSC_RDPS_PrecipRate_Sfc_RLatLon0.09_PT035H.grib2 2026-05-03 15:02 175K
20260503T12Z_MSC_RDPS_PrecipType-Instant_Sfc_RLatLon0.09_PT035H.grib2 2026-05-03 15:02 568K
20260503T12Z_MSC_RDPS_Pressure-Trend3h_Sfc_RLatLon0.09_PT035H.grib2 2026-05-03 15:02 1.2M
20260503T12Z_MSC_RDPS_Pressure_MSL_RLatLon0.09_PT035H.grib2 2026-05-03 15:02 330K
20260503T12Z_MSC_RDPS_Pressure_PVU-1.5_RLatLon0.09_PT035H.grib2 2026-05-03 15:02 2.5M
20260503T12Z_MSC_RDPS_Pressure_PVU-1_RLatLon0.09_PT035H.grib2 2026-05-03 15:02 2.4M
20260503T12Z_MSC_RDPS_Pressure_PVU-2_RLatLon0.09_PT035H.grib2 2026-05-03 15:02 2.4M
20260503T12Z_MSC_RDPS_Pressure_Sfc_RLatLon0.09_PT035H.grib2 2026-05-03 15:02 499K
20260503T12Z_MSC_RDPS_RadiativeTemp_Sfc_RLatLon0.09_PT035H.grib2 2026-05-03 15:02 318K
20260503T12Z_MSC_RDPS_Rain-Accum1h_Sfc_RLatLon0.09_PT035H.grib2 2026-05-03 15:02 645K
20260503T12Z_MSC_RDPS_Rain-Accum_Sfc_RLatLon0.09_PT035H.grib2 2026-05-03 15:02 1.6M
20260503T12Z_MSC_RDPS_RelativeHumidity_AGL-2m_RLatLon0.09_PT035H.grib2 2026-05-03 15:02 1.0M
20260503T12Z_MSC_RDPS_RelativeHumidity_IsbL-0010_RLatLon0.09_PT035H.grib2 2026-05-03 15:02 614K
20260503T12Z_MSC_RDPS_RelativeHumidity_IsbL-0020_RLatLon0.09_PT035H.grib2 2026-05-03 15:02 666K
20260503T12Z_MSC_RDPS_RelativeHumidity_IsbL-0030_RLatLon0.09_PT035H.grib2 2026-05-03 15:02 604K
20260503T12Z_MSC_RDPS_RelativeHumidity_IsbL-0050_RLatLon0.09_PT035H.grib2 2026-05-03 15:02 362K
20260503T12Z_MSC_RDPS_RelativeHumidity_IsbL-0100_RLatLon0.09_PT035H.grib2 2026-05-03 15:02 289K
20260503T12Z_MSC_RDPS_RelativeHumidity_IsbL-0150_RLatLon0.09_PT035H.grib2 2026-05-03 15:02 421K
20260503T12Z_MSC_RDPS_RelativeHumidity_IsbL-0175_RLatLon0.09_PT035H.grib2 2026-05-03 15:02 486K
20260503T12Z_MSC_RDPS_RelativeHumidity_IsbL-0200_RLatLon0.09_PT035H.grib2 2026-05-03 15:02 562K
20260503T12Z_MSC_RDPS_RelativeHumidity_IsbL-0225_RLatLon0.09_PT035H.grib2 2026-05-03 15:02 631K
20260503T12Z_MSC_RDPS_RelativeHumidity_IsbL-0250_RLatLon0.09_PT035H.grib2 2026-05-03 15:02 698K
20260503T12Z_MSC_RDPS_RelativeHumidity_IsbL-0275_RLatLon0.09_PT035H.grib2 2026-05-03 15:02 716K
20260503T12Z_MSC_RDPS_RelativeHumidity_IsbL-0300_RLatLon0.09_PT035H.grib2 2026-05-03 15:02 749K
20260503T12Z_MSC_RDPS_RelativeHumidity_IsbL-0350_RLatLon0.09_PT035H.grib2 2026-05-03 15:02 773K
20260503T12Z_MSC_RDPS_RelativeHumidity_IsbL-0400_RLatLon0.09_PT035H.grib2 2026-05-03 15:02 789K
20260503T12Z_MSC_RDPS_RelativeHumidity_IsbL-0450_RLatLon0.09_PT035H.grib2 2026-05-03 15:02 794K
20260503T12Z_MSC_RDPS_RelativeHumidity_IsbL-0500_RLatLon0.09_PT035H.grib2 2026-05-03 15:02 798K
20260503T12Z_MSC_RDPS_RelativeHumidity_IsbL-0550_RLatLon0.09_PT035H.grib2 2026-05-03 15:02 826K
20260503T12Z_MSC_RDPS_RelativeHumidity_IsbL-0600_RLatLon0.09_PT035H.grib2 2026-05-03 15:02 846K
20260503T12Z_MSC_RDPS_RelativeHumidity_IsbL-0650_RLatLon0.09_PT035H.grib2 2026-05-03 15:02 855K
20260503T12Z_MSC_RDPS_RelativeHumidity_IsbL-0700_RLatLon0.09_PT035H.grib2 2026-05-03 15:02 891K
20260503T12Z_MSC_RDPS_RelativeHumidity_IsbL-0750_RLatLon0.09_PT035H.grib2 2026-05-03 15:02 926K
20260503T12Z_MSC_RDPS_RelativeHumidity_IsbL-0800_RLatLon0.09_PT035H.grib2 2026-05-03 15:02 1.0M
20260503T12Z_MSC_RDPS_RelativeHumidity_IsbL-0850_RLatLon0.09_PT035H.grib2 2026-05-03 15:02 1.0M
20260503T12Z_MSC_RDPS_RelativeHumidity_IsbL-0875_RLatLon0.09_PT035H.grib2 2026-05-03 15:02 1.1M
20260503T12Z_MSC_RDPS_RelativeHumidity_IsbL-0900_RLatLon0.09_PT035H.grib2 2026-05-03 15:02 1.1M
20260503T12Z_MSC_RDPS_RelativeHumidity_IsbL-0925_RLatLon0.09_PT035H.grib2 2026-05-03 15:02 1.1M
20260503T12Z_MSC_RDPS_RelativeHumidity_IsbL-0950_RLatLon0.09_PT035H.grib2 2026-05-03 15:02 1.1M
20260503T12Z_MSC_RDPS_RelativeHumidity_IsbL-0970_RLatLon0.09_PT035H.grib2 2026-05-03 15:02 1.0M
20260503T12Z_MSC_RDPS_RelativeHumidity_IsbL-0985_RLatLon0.09_PT035H.grib2 2026-05-03 15:02 1.0M
20260503T12Z_MSC_RDPS_RelativeHumidity_IsbL-1000_RLatLon0.09_PT035H.grib2 2026-05-03 15:02 1.0M
20260503T12Z_MSC_RDPS_RelativeHumidity_IsbL-1015_RLatLon0.09_PT035H.grib2 2026-05-03 15:02 1.0M
20260503T12Z_MSC_RDPS_Runoff-Accum_Sfc_RLatLon0.09_PT035H.grib2 2026-05-03 15:02 64K
20260503T12Z_MSC_RDPS_SWEATIndex_Sfc_RLatLon0.09_PT035H.grib2 2026-05-03 15:02 2.4M
20260503T12Z_MSC_RDPS_SeeingIndex_EAtm_RLatLon0.09_PT035H.grib2 2026-05-03 15:02 1.0M
20260503T12Z_MSC_RDPS_SensibleHeatNetFlux_Sfc_RLatLon0.09_PT035H.grib2 2026-05-03 15:02 337K
20260503T12Z_MSC_RDPS_ShowalterIndex_IsbL-0500_RLatLon0.09_PT035H.grib2 2026-05-03 15:02 2.6M
20260503T12Z_MSC_RDPS_SkyTransparencyIndex_EAtm_RLatLon0.09_PT035H.grib2 2026-05-03 15:02 729K
20260503T12Z_MSC_RDPS_Snow-Accum1h_Sfc_RLatLon0.09_PT035H.grib2 2026-05-03 15:02 369K
20260503T12Z_MSC_RDPS_Snow-Accum_Sfc_RLatLon0.09_PT035H.grib2 2026-05-03 15:02 742K
20260503T12Z_MSC_RDPS_SnowDensity_Sfc_RLatLon0.09_PT035H.grib2 2026-05-03 15:02 169K
20260503T12Z_MSC_RDPS_SnowDepth_Sfc_RLatLon0.09_PT035H.grib2 2026-05-03 15:02 651K
20260503T12Z_MSC_RDPS_SoilTemp_DBS-0to10cm_RLatLon0.09_PT035H.grib2 2026-05-03 15:02 240K
20260503T12Z_MSC_RDPS_SoilTemp_Sfc_RLatLon0.09_PT035H.grib2 2026-05-03 15:02 285K
20260503T12Z_MSC_RDPS_SoilVolumetricIceContent_Sfc_RLatLon0.09_PT035H.grib2 2026-05-03 15:02 154K
20260503T12Z_MSC_RDPS_SoilVolumetricWaterContent_DBS-0to10cm_RLatLon0.09_PT035H.grib2 2026-05-03 15:02 275K
20260503T12Z_MSC_RDPS_SoilVolumetricWaterContent_DBS-0to1cm_RLatLon0.09_PT035H.grib2 2026-05-03 15:02 339K
20260503T12Z_MSC_RDPS_SpecificHumidity_AGL-120m_RLatLon0.09_PT035H.grib2 2026-05-03 15:02 492K
20260503T12Z_MSC_RDPS_SpecificHumidity_AGL-2m_RLatLon0.09_PT035H.grib2 2026-05-03 15:02 666K
20260503T12Z_MSC_RDPS_SpecificHumidity_AGL-40m_RLatLon0.09_PT035H.grib2 2026-05-03 15:02 498K
20260503T12Z_MSC_RDPS_SpecificHumidity_AGL-80m_RLatLon0.09_PT035H.grib2 2026-05-03 15:02 494K
20260503T12Z_MSC_RDPS_SpecificHumidity_IsbL-0001_RLatLon0.09_PT035H.grib2 2026-05-03 15:02 403K
20260503T12Z_MSC_RDPS_SpecificHumidity_IsbL-0005_RLatLon0.09_PT035H.grib2 2026-05-03 15:02 371K
20260503T12Z_MSC_RDPS_SpecificHumidity_IsbL-0010_RLatLon0.09_PT035H.grib2 2026-05-03 15:02 402K
20260503T12Z_MSC_RDPS_SpecificHumidity_IsbL-0020_RLatLon0.09_PT035H.grib2 2026-05-03 15:02 382K
20260503T12Z_MSC_RDPS_SpecificHumidity_IsbL-0030_RLatLon0.09_PT035H.grib2 2026-05-03 15:02 377K
20260503T12Z_MSC_RDPS_SpecificHumidity_IsbL-0050_RLatLon0.09_PT035H.grib2 2026-05-03 15:02 490K
20260503T12Z_MSC_RDPS_SpecificHumidity_IsbL-0100_RLatLon0.09_PT035H.grib2 2026-05-03 15:02 431K
20260503T12Z_MSC_RDPS_SpecificHumidity_IsbL-0150_RLatLon0.09_PT035H.grib2 2026-05-03 15:02 459K
20260503T12Z_MSC_RDPS_SpecificHumidity_IsbL-0175_RLatLon0.09_PT035H.grib2 2026-05-03 15:02 450K
20260503T12Z_MSC_RDPS_SpecificHumidity_IsbL-0200_RLatLon0.09_PT035H.grib2 2026-05-03 15:02 467K
20260503T12Z_MSC_RDPS_SpecificHumidity_IsbL-0225_RLatLon0.09_PT035H.grib2 2026-05-03 15:02 470K
20260503T12Z_MSC_RDPS_SpecificHumidity_IsbL-0250_RLatLon0.09_PT035H.grib2 2026-05-03 15:02 533K
20260503T12Z_MSC_RDPS_SpecificHumidity_IsbL-0275_RLatLon0.09_PT035H.grib2 2026-05-03 15:02 489K
20260503T12Z_MSC_RDPS_SpecificHumidity_IsbL-0300_RLatLon0.09_PT035H.grib2 2026-05-03 15:02 457K
20260503T12Z_MSC_RDPS_SpecificHumidity_IsbL-0350_RLatLon0.09_PT035H.grib2 2026-05-03 15:02 551K
20260503T12Z_MSC_RDPS_SpecificHumidity_IsbL-0400_RLatLon0.09_PT035H.grib2 2026-05-03 15:02 532K
20260503T12Z_MSC_RDPS_SpecificHumidity_IsbL-0450_RLatLon0.09_PT035H.grib2 2026-05-03 15:02 581K
20260503T12Z_MSC_RDPS_SpecificHumidity_IsbL-0500_RLatLon0.09_PT035H.grib2 2026-05-03 15:02 515K
20260503T12Z_MSC_RDPS_SpecificHumidity_IsbL-0550_RLatLon0.09_PT035H.grib2 2026-05-03 15:02 585K
20260503T12Z_MSC_RDPS_SpecificHumidity_IsbL-0600_RLatLon0.09_PT035H.grib2 2026-05-03 15:02 636K
20260503T12Z_MSC_RDPS_SpecificHumidity_IsbL-0650_RLatLon0.09_PT035H.grib2 2026-05-03 15:02 557K
20260503T12Z_MSC_RDPS_SpecificHumidity_IsbL-0700_RLatLon0.09_PT035H.grib2 2026-05-03 15:02 605K
20260503T12Z_MSC_RDPS_SpecificHumidity_IsbL-0750_RLatLon0.09_PT035H.grib2 2026-05-03 15:02 657K
20260503T12Z_MSC_RDPS_SpecificHumidity_IsbL-0800_RLatLon0.09_PT035H.grib2 2026-05-03 15:02 740K
20260503T12Z_MSC_RDPS_SpecificHumidity_IsbL-0850_RLatLon0.09_PT035H.grib2 2026-05-03 15:02 816K
20260503T12Z_MSC_RDPS_SpecificHumidity_IsbL-0875_RLatLon0.09_PT035H.grib2 2026-05-03 15:02 843K
20260503T12Z_MSC_RDPS_SpecificHumidity_IsbL-0900_RLatLon0.09_PT035H.grib2 2026-05-03 15:02 713K
20260503T12Z_MSC_RDPS_SpecificHumidity_IsbL-0925_RLatLon0.09_PT035H.grib2 2026-05-03 15:02 714K
20260503T12Z_MSC_RDPS_SpecificHumidity_IsbL-0950_RLatLon0.09_PT035H.grib2 2026-05-03 15:02 713K
20260503T12Z_MSC_RDPS_SpecificHumidity_IsbL-0970_RLatLon0.09_PT035H.grib2 2026-05-03 15:02 704K
20260503T12Z_MSC_RDPS_SpecificHumidity_IsbL-0985_RLatLon0.09_PT035H.grib2 2026-05-03 15:02 696K
20260503T12Z_MSC_RDPS_SpecificHumidity_IsbL-1000_RLatLon0.09_PT035H.grib2 2026-05-03 15:02 691K
20260503T12Z_MSC_RDPS_SpecificHumidity_IsbL-1015_RLatLon0.09_PT035H.grib2 2026-05-03 15:02 681K
20260503T12Z_MSC_RDPS_SpecificHumidity_Sfc_RLatLon0.09_PT035H.grib2 2026-05-03 15:02 342K
20260503T12Z_MSC_RDPS_StormRelativeHelicity_EtaL-10000_RLatLon0.09_PT035H.grib2 2026-05-03 15:02 1.1M
20260503T12Z_MSC_RDPS_StormSeverityIndex_EtaL-10000_RLatLon0.09_PT035H.grib2 2026-05-03 15:02 1.2M
20260503T12Z_MSC_RDPS_Thickness_IsbL-0850to0700_RLatLon0.09_PT035H.grib2 2026-05-03 15:02 178K
20260503T12Z_MSC_RDPS_Thickness_IsbL-1000to0500_RLatLon0.09_PT035H.grib2 2026-05-03 15:02 201K
20260503T12Z_MSC_RDPS_Thickness_IsbL-1000to0850_RLatLon0.09_PT035H.grib2 2026-05-03 15:02 186K
20260503T12Z_MSC_RDPS_TotalCloudCover_Sfc_RLatLon0.09_PT035H.grib2 2026-05-03 15:02 660K
20260503T12Z_MSC_RDPS_TotalTotalsIndex_Sfc_RLatLon0.09_PT035H.grib2 2026-05-03 15:02 2.4M
20260503T12Z_MSC_RDPS_UVIndex-ClearSky_Sfc_RLatLon0.09_PT035H.grib2 2026-05-03 15:02 204K
20260503T12Z_MSC_RDPS_UVIndex_Sfc_RLatLon0.09_PT035H.grib2 2026-05-03 15:02 447K
20260503T12Z_MSC_RDPS_UpwardLongwaveRadiationFlux_NTAtm_RLatLon0.09_PT035H.grib2 2026-05-03 15:02 500K
20260503T12Z_MSC_RDPS_UpwardShortwaveRadiationFlux_NTAtm_RLatLon0.09_PT035H.grib2 2026-05-03 15:02 399K
20260503T12Z_MSC_RDPS_VerticalVelocity_IsbL-0250_RLatLon0.09_PT035H.grib2 2026-05-03 15:02 442K
20260503T12Z_MSC_RDPS_VerticalVelocity_IsbL-0500_RLatLon0.09_PT035H.grib2 2026-05-03 15:02 554K
20260503T12Z_MSC_RDPS_VerticalVelocity_IsbL-0700_RLatLon0.09_PT035H.grib2 2026-05-03 15:02 606K
20260503T12Z_MSC_RDPS_VerticalVelocity_IsbL-0850_RLatLon0.09_PT035H.grib2 2026-05-03 15:02 707K
20260503T12Z_MSC_RDPS_VerticalWindShear_EtaL-6500_RLatLon0.09_PT035H.grib2 2026-05-03 15:02 1.2M
20260503T12Z_MSC_RDPS_WindChill_Sfc_RLatLon0.09_PT035H.grib2 2026-05-03 15:02 1.1M
20260503T12Z_MSC_RDPS_WindDir_AGL-10m_RLatLon0.09_PT035H.grib2 2026-05-03 15:02 950K
20260503T12Z_MSC_RDPS_WindDir_AGL-120m_RLatLon0.09_PT035H.grib2 2026-05-03 15:02 598K
20260503T12Z_MSC_RDPS_WindDir_AGL-40m_RLatLon0.09_PT035H.grib2 2026-05-03 15:02 619K
20260503T12Z_MSC_RDPS_WindDir_AGL-80m_RLatLon0.09_PT035H.grib2 2026-05-03 15:02 606K
20260503T12Z_MSC_RDPS_WindDir_IsbL-0001_RLatLon0.09_PT035H.grib2 2026-05-03 15:02 284K
20260503T12Z_MSC_RDPS_WindDir_IsbL-0005_RLatLon0.09_PT035H.grib2 2026-05-03 15:02 384K
20260503T12Z_MSC_RDPS_WindDir_IsbL-0010_RLatLon0.09_PT035H.grib2 2026-05-03 15:02 397K
20260503T12Z_MSC_RDPS_WindDir_IsbL-0020_RLatLon0.09_PT035H.grib2 2026-05-03 15:02 428K
20260503T12Z_MSC_RDPS_WindDir_IsbL-0030_RLatLon0.09_PT035H.grib2 2026-05-03 15:02 420K
20260503T12Z_MSC_RDPS_WindDir_IsbL-0050_RLatLon0.09_PT035H.grib2 2026-05-03 15:02 423K
20260503T12Z_MSC_RDPS_WindDir_IsbL-0100_RLatLon0.09_PT035H.grib2 2026-05-03 15:02 415K
20260503T12Z_MSC_RDPS_WindDir_IsbL-0150_RLatLon0.09_PT035H.grib2 2026-05-03 15:02 415K
20260503T12Z_MSC_RDPS_WindDir_IsbL-0175_RLatLon0.09_PT035H.grib2 2026-05-03 15:02 442K
20260503T12Z_MSC_RDPS_WindDir_IsbL-0200_RLatLon0.09_PT035H.grib2 2026-05-03 15:02 451K
20260503T12Z_MSC_RDPS_WindDir_IsbL-0225_RLatLon0.09_PT035H.grib2 2026-05-03 15:02 453K
20260503T12Z_MSC_RDPS_WindDir_IsbL-0250_RLatLon0.09_PT035H.grib2 2026-05-03 15:02 456K
20260503T12Z_MSC_RDPS_WindDir_IsbL-0275_RLatLon0.09_PT035H.grib2 2026-05-03 15:02 478K
20260503T12Z_MSC_RDPS_WindDir_IsbL-0300_RLatLon0.09_PT035H.grib2 2026-05-03 15:02 476K
20260503T12Z_MSC_RDPS_WindDir_IsbL-0350_RLatLon0.09_PT035H.grib2 2026-05-03 15:02 496K
20260503T12Z_MSC_RDPS_WindDir_IsbL-0400_RLatLon0.09_PT035H.grib2 2026-05-03 15:02 515K
20260503T12Z_MSC_RDPS_WindDir_IsbL-0450_RLatLon0.09_PT035H.grib2 2026-05-03 15:02 533K
20260503T12Z_MSC_RDPS_WindDir_IsbL-0500_RLatLon0.09_PT035H.grib2 2026-05-03 15:02 539K
20260503T12Z_MSC_RDPS_WindDir_IsbL-0550_RLatLon0.09_PT035H.grib2 2026-05-03 15:02 551K
20260503T12Z_MSC_RDPS_WindDir_IsbL-0600_RLatLon0.09_PT035H.grib2 2026-05-03 15:02 577K
20260503T12Z_MSC_RDPS_WindDir_IsbL-0650_RLatLon0.09_PT035H.grib2 2026-05-03 15:02 616K
20260503T12Z_MSC_RDPS_WindDir_IsbL-0700_RLatLon0.09_PT035H.grib2 2026-05-03 15:02 656K
20260503T12Z_MSC_RDPS_WindDir_IsbL-0750_RLatLon0.09_PT035H.grib2 2026-05-03 15:02 706K
20260503T12Z_MSC_RDPS_WindDir_IsbL-0800_RLatLon0.09_PT035H.grib2 2026-05-03 15:02 774K
20260503T12Z_MSC_RDPS_WindDir_IsbL-0850_RLatLon0.09_PT035H.grib2 2026-05-03 15:02 856K
20260503T12Z_MSC_RDPS_WindDir_IsbL-0875_RLatLon0.09_PT035H.grib2 2026-05-03 15:02 891K
20260503T12Z_MSC_RDPS_WindDir_IsbL-0900_RLatLon0.09_PT035H.grib2 2026-05-03 15:02 905K
20260503T12Z_MSC_RDPS_WindDir_IsbL-0925_RLatLon0.09_PT035H.grib2 2026-05-03 15:02 906K
20260503T12Z_MSC_RDPS_WindDir_IsbL-0950_RLatLon0.09_PT035H.grib2 2026-05-03 15:02 902K
20260503T12Z_MSC_RDPS_WindDir_IsbL-0970_RLatLon0.09_PT035H.grib2 2026-05-03 15:02 906K
20260503T12Z_MSC_RDPS_WindDir_IsbL-0985_RLatLon0.09_PT035H.grib2 2026-05-03 15:02 915K
20260503T12Z_MSC_RDPS_WindDir_IsbL-1000_RLatLon0.09_PT035H.grib2 2026-05-03 15:02 928K
20260503T12Z_MSC_RDPS_WindDir_IsbL-1015_RLatLon0.09_PT035H.grib2 2026-05-03 15:02 941K
20260503T12Z_MSC_RDPS_WindGust-Max_AGL-10m_RLatLon0.09_PT035H.grib2 2026-05-03 15:02 954K
20260503T12Z_MSC_RDPS_WindGust-Min_AGL-10m_RLatLon0.09_PT035H.grib2 2026-05-03 15:02 1.0M
20260503T12Z_MSC_RDPS_WindGust_AGL-10m_RLatLon0.09_PT035H.grib2 2026-05-03 15:02 1.0M
20260503T12Z_MSC_RDPS_WindSpeed_AGL-10m_RLatLon0.09_PT035H.grib2 2026-05-03 15:02 844K
20260503T12Z_MSC_RDPS_WindSpeed_AGL-120m_RLatLon0.09_PT035H.grib2 2026-05-03 15:02 535K
20260503T12Z_MSC_RDPS_WindSpeed_AGL-40m_RLatLon0.09_PT035H.grib2 2026-05-03 15:02 543K
20260503T12Z_MSC_RDPS_WindSpeed_AGL-80m_RLatLon0.09_PT035H.grib2 2026-05-03 15:02 537K
20260503T12Z_MSC_RDPS_WindSpeed_IsbL-0001_RLatLon0.09_PT035H.grib2 2026-05-03 15:02 256K
20260503T12Z_MSC_RDPS_WindSpeed_IsbL-0005_RLatLon0.09_PT035H.grib2 2026-05-03 15:02 352K
20260503T12Z_MSC_RDPS_WindSpeed_IsbL-0010_RLatLon0.09_PT035H.grib2 2026-05-03 15:02 399K
20260503T12Z_MSC_RDPS_WindSpeed_IsbL-0020_RLatLon0.09_PT035H.grib2 2026-05-03 15:02 422K
20260503T12Z_MSC_RDPS_WindSpeed_IsbL-0030_RLatLon0.09_PT035H.grib2 2026-05-03 15:02 322K
20260503T12Z_MSC_RDPS_WindSpeed_IsbL-0050_RLatLon0.09_PT035H.grib2 2026-05-03 15:02 357K
20260503T12Z_MSC_RDPS_WindSpeed_IsbL-0100_RLatLon0.09_PT035H.grib2 2026-05-03 15:02 488K
20260503T12Z_MSC_RDPS_WindSpeed_IsbL-0150_RLatLon0.09_PT035H.grib2 2026-05-03 15:02 389K
20260503T12Z_MSC_RDPS_WindSpeed_IsbL-0175_RLatLon0.09_PT035H.grib2 2026-05-03 15:02 413K
20260503T12Z_MSC_RDPS_WindSpeed_IsbL-0200_RLatLon0.09_PT035H.grib2 2026-05-03 15:02 447K
20260503T12Z_MSC_RDPS_WindSpeed_IsbL-0225_RLatLon0.09_PT035H.grib2 2026-05-03 15:02 453K
20260503T12Z_MSC_RDPS_WindSpeed_IsbL-0250_RLatLon0.09_PT035H.grib2 2026-05-03 15:02 455K
20260503T12Z_MSC_RDPS_WindSpeed_IsbL-0275_RLatLon0.09_PT035H.grib2 2026-05-03 15:02 471K
20260503T12Z_MSC_RDPS_WindSpeed_IsbL-0300_RLatLon0.09_PT035H.grib2 2026-05-03 15:02 469K
20260503T12Z_MSC_RDPS_WindSpeed_IsbL-0350_RLatLon0.09_PT035H.grib2 2026-05-03 15:02 480K
20260503T12Z_MSC_RDPS_WindSpeed_IsbL-0400_RLatLon0.09_PT035H.grib2 2026-05-03 15:02 481K
20260503T12Z_MSC_RDPS_WindSpeed_IsbL-0450_RLatLon0.09_PT035H.grib2 2026-05-03 15:02 468K
20260503T12Z_MSC_RDPS_WindSpeed_IsbL-0500_RLatLon0.09_PT035H.grib2 2026-05-03 15:02 470K
20260503T12Z_MSC_RDPS_WindSpeed_IsbL-0550_RLatLon0.09_PT035H.grib2 2026-05-03 15:02 471K
20260503T12Z_MSC_RDPS_WindSpeed_IsbL-0600_RLatLon0.09_PT035H.grib2 2026-05-03 15:02 599K
20260503T12Z_MSC_RDPS_WindSpeed_IsbL-0650_RLatLon0.09_PT035H.grib2 2026-05-03 15:02 618K
20260503T12Z_MSC_RDPS_WindSpeed_IsbL-0700_RLatLon0.09_PT035H.grib2 2026-05-03 15:02 638K
20260503T12Z_MSC_RDPS_WindSpeed_IsbL-0750_RLatLon0.09_PT035H.grib2 2026-05-03 15:02 663K
20260503T12Z_MSC_RDPS_WindSpeed_IsbL-0800_RLatLon0.09_PT035H.grib2 2026-05-03 15:02 710K
20260503T12Z_MSC_RDPS_WindSpeed_IsbL-0850_RLatLon0.09_PT035H.grib2 2026-05-03 15:02 776K
20260503T12Z_MSC_RDPS_WindSpeed_IsbL-0875_RLatLon0.09_PT035H.grib2 2026-05-03 15:02 799K
20260503T12Z_MSC_RDPS_WindSpeed_IsbL-0900_RLatLon0.09_PT035H.grib2 2026-05-03 15:02 860K
20260503T12Z_MSC_RDPS_WindSpeed_IsbL-0925_RLatLon0.09_PT035H.grib2 2026-05-03 15:02 872K
20260503T12Z_MSC_RDPS_WindSpeed_IsbL-0950_RLatLon0.09_PT035H.grib2 2026-05-03 15:02 873K
20260503T12Z_MSC_RDPS_WindSpeed_IsbL-0970_RLatLon0.09_PT035H.grib2 2026-05-03 15:02 866K
20260503T12Z_MSC_RDPS_WindSpeed_IsbL-0985_RLatLon0.09_PT035H.grib2 2026-05-03 15:02 861K
20260503T12Z_MSC_RDPS_WindSpeed_IsbL-1000_RLatLon0.09_PT035H.grib2 2026-05-03 15:02 853K
20260503T12Z_MSC_RDPS_WindSpeed_IsbL-1015_RLatLon0.09_PT035H.grib2 2026-05-03 15:02 845K
20260503T12Z_MSC_RDPS_WindU_AGL-10m_RLatLon0.09_PT035H.grib2 2026-05-03 15:02 433K
20260503T12Z_MSC_RDPS_WindU_AGL-120m_RLatLon0.09_PT035H.grib2 2026-05-03 15:02 532K
20260503T12Z_MSC_RDPS_WindU_AGL-40m_RLatLon0.09_PT035H.grib2 2026-05-03 15:02 536K
20260503T12Z_MSC_RDPS_WindU_AGL-80m_RLatLon0.09_PT035H.grib2 2026-05-03 15:02 533K
20260503T12Z_MSC_RDPS_WindU_IsbL-0001_RLatLon0.09_PT035H.grib2 2026-05-03 15:02 296K
20260503T12Z_MSC_RDPS_WindU_IsbL-0005_RLatLon0.09_PT035H.grib2 2026-05-03 15:02 288K
20260503T12Z_MSC_RDPS_WindU_IsbL-0010_RLatLon0.09_PT035H.grib2 2026-05-03 15:02 298K
20260503T12Z_MSC_RDPS_WindU_IsbL-0020_RLatLon0.09_PT035H.grib2 2026-05-03 15:02 316K
20260503T12Z_MSC_RDPS_WindU_IsbL-0030_RLatLon0.09_PT035H.grib2 2026-05-03 15:02 354K
20260503T12Z_MSC_RDPS_WindU_IsbL-0050_RLatLon0.09_PT035H.grib2 2026-05-03 15:02 386K
20260503T12Z_MSC_RDPS_WindU_IsbL-0100_RLatLon0.09_PT035H.grib2 2026-05-03 15:02 344K
20260503T12Z_MSC_RDPS_WindU_IsbL-0150_RLatLon0.09_PT035H.grib2 2026-05-03 15:02 405K
20260503T12Z_MSC_RDPS_WindU_IsbL-0175_RLatLon0.09_PT035H.grib2 2026-05-03 15:02 428K
20260503T12Z_MSC_RDPS_WindU_IsbL-0200_RLatLon0.09_PT035H.grib2 2026-05-03 15:02 341K
20260503T12Z_MSC_RDPS_WindU_IsbL-0225_RLatLon0.09_PT035H.grib2 2026-05-03 15:02 345K
20260503T12Z_MSC_RDPS_WindU_IsbL-0250_RLatLon0.09_PT035H.grib2 2026-05-03 15:02 346K
20260503T12Z_MSC_RDPS_WindU_IsbL-0275_RLatLon0.09_PT035H.grib2 2026-05-03 15:02 359K
20260503T12Z_MSC_RDPS_WindU_IsbL-0300_RLatLon0.09_PT035H.grib2 2026-05-03 15:02 356K
20260503T12Z_MSC_RDPS_WindU_IsbL-0350_RLatLon0.09_PT035H.grib2 2026-05-03 15:02 365K
20260503T12Z_MSC_RDPS_WindU_IsbL-0400_RLatLon0.09_PT035H.grib2 2026-05-03 15:02 469K
20260503T12Z_MSC_RDPS_WindU_IsbL-0450_RLatLon0.09_PT035H.grib2 2026-05-03 15:02 473K
20260503T12Z_MSC_RDPS_WindU_IsbL-0500_RLatLon0.09_PT035H.grib2 2026-05-03 15:02 476K
20260503T12Z_MSC_RDPS_WindU_IsbL-0550_RLatLon0.09_PT035H.grib2 2026-05-03 15:02 478K
20260503T12Z_MSC_RDPS_WindU_IsbL-0600_RLatLon0.09_PT035H.grib2 2026-05-03 15:02 487K
20260503T12Z_MSC_RDPS_WindU_IsbL-0650_RLatLon0.09_PT035H.grib2 2026-05-03 15:02 504K
20260503T12Z_MSC_RDPS_WindU_IsbL-0700_RLatLon0.09_PT035H.grib2 2026-05-03 15:02 523K
20260503T12Z_MSC_RDPS_WindU_IsbL-0750_RLatLon0.09_PT035H.grib2 2026-05-03 15:02 545K
20260503T12Z_MSC_RDPS_WindU_IsbL-0800_RLatLon0.09_PT035H.grib2 2026-05-03 15:02 584K
20260503T12Z_MSC_RDPS_WindU_IsbL-0850_RLatLon0.09_PT035H.grib2 2026-05-03 15:02 637K
20260503T12Z_MSC_RDPS_WindU_IsbL-0875_RLatLon0.09_PT035H.grib2 2026-05-03 15:02 655K
20260503T12Z_MSC_RDPS_WindU_IsbL-0900_RLatLon0.09_PT035H.grib2 2026-05-03 15:02 665K
20260503T12Z_MSC_RDPS_WindU_IsbL-0925_RLatLon0.09_PT035H.grib2 2026-05-03 15:02 665K
20260503T12Z_MSC_RDPS_WindU_IsbL-0950_RLatLon0.09_PT035H.grib2 2026-05-03 15:02 661K
20260503T12Z_MSC_RDPS_WindU_IsbL-0970_RLatLon0.09_PT035H.grib2 2026-05-03 15:02 796K
20260503T12Z_MSC_RDPS_WindU_IsbL-0985_RLatLon0.09_PT035H.grib2 2026-05-03 15:02 791K
20260503T12Z_MSC_RDPS_WindU_IsbL-1000_RLatLon0.09_PT035H.grib2 2026-05-03 15:02 786K
20260503T12Z_MSC_RDPS_WindU_IsbL-1015_RLatLon0.09_PT035H.grib2 2026-05-03 15:02 827K
20260503T12Z_MSC_RDPS_WindV_AGL-10m_RLatLon0.09_PT035H.grib2 2026-05-03 15:02 436K
20260503T12Z_MSC_RDPS_WindV_AGL-120m_RLatLon0.09_PT035H.grib2 2026-05-03 15:02 416K
20260503T12Z_MSC_RDPS_WindV_AGL-40m_RLatLon0.09_PT035H.grib2 2026-05-03 15:02 539K
20260503T12Z_MSC_RDPS_WindV_AGL-80m_RLatLon0.09_PT035H.grib2 2026-05-03 15:02 535K
20260503T12Z_MSC_RDPS_WindV_IsbL-0001_RLatLon0.09_PT035H.grib2 2026-05-03 15:02 298K
20260503T12Z_MSC_RDPS_WindV_IsbL-0005_RLatLon0.09_PT035H.grib2 2026-05-03 15:02 291K
20260503T12Z_MSC_RDPS_WindV_IsbL-0010_RLatLon0.09_PT035H.grib2 2026-05-03 15:02 390K
20260503T12Z_MSC_RDPS_WindV_IsbL-0020_RLatLon0.09_PT035H.grib2 2026-05-03 15:02 317K
20260503T12Z_MSC_RDPS_WindV_IsbL-0030_RLatLon0.09_PT035H.grib2 2026-05-03 15:02 316K
20260503T12Z_MSC_RDPS_WindV_IsbL-0050_RLatLon0.09_PT035H.grib2 2026-05-03 15:02 350K
20260503T12Z_MSC_RDPS_WindV_IsbL-0100_RLatLon0.09_PT035H.grib2 2026-05-03 15:02 341K
20260503T12Z_MSC_RDPS_WindV_IsbL-0150_RLatLon0.09_PT035H.grib2 2026-05-03 15:02 402K
20260503T12Z_MSC_RDPS_WindV_IsbL-0175_RLatLon0.09_PT035H.grib2 2026-05-03 15:02 329K
20260503T12Z_MSC_RDPS_WindV_IsbL-0200_RLatLon0.09_PT035H.grib2 2026-05-03 15:02 365K
20260503T12Z_MSC_RDPS_WindV_IsbL-0225_RLatLon0.09_PT035H.grib2 2026-05-03 15:02 369K
20260503T12Z_MSC_RDPS_WindV_IsbL-0250_RLatLon0.09_PT035H.grib2 2026-05-03 15:02 370K
20260503T12Z_MSC_RDPS_WindV_IsbL-0275_RLatLon0.09_PT035H.grib2 2026-05-03 15:02 382K
20260503T12Z_MSC_RDPS_WindV_IsbL-0300_RLatLon0.09_PT035H.grib2 2026-05-03 15:02 379K
20260503T12Z_MSC_RDPS_WindV_IsbL-0350_RLatLon0.09_PT035H.grib2 2026-05-03 15:02 386K
20260503T12Z_MSC_RDPS_WindV_IsbL-0400_RLatLon0.09_PT035H.grib2 2026-05-03 15:02 365K
20260503T12Z_MSC_RDPS_WindV_IsbL-0450_RLatLon0.09_PT035H.grib2 2026-05-03 15:02 367K
20260503T12Z_MSC_RDPS_WindV_IsbL-0500_RLatLon0.09_PT035H.grib2 2026-05-03 15:02 369K
20260503T12Z_MSC_RDPS_WindV_IsbL-0550_RLatLon0.09_PT035H.grib2 2026-05-03 15:02 475K
20260503T12Z_MSC_RDPS_WindV_IsbL-0600_RLatLon0.09_PT035H.grib2 2026-05-03 15:02 485K
20260503T12Z_MSC_RDPS_WindV_IsbL-0650_RLatLon0.09_PT035H.grib2 2026-05-03 15:02 502K
20260503T12Z_MSC_RDPS_WindV_IsbL-0700_RLatLon0.09_PT035H.grib2 2026-05-03 15:02 519K
20260503T12Z_MSC_RDPS_WindV_IsbL-0750_RLatLon0.09_PT035H.grib2 2026-05-03 15:02 540K
20260503T12Z_MSC_RDPS_WindV_IsbL-0800_RLatLon0.09_PT035H.grib2 2026-05-03 15:02 578K
20260503T12Z_MSC_RDPS_WindV_IsbL-0850_RLatLon0.09_PT035H.grib2 2026-05-03 15:02 623K
20260503T12Z_MSC_RDPS_WindV_IsbL-0875_RLatLon0.09_PT035H.grib2 2026-05-03 15:02 645K
20260503T12Z_MSC_RDPS_WindV_IsbL-0900_RLatLon0.09_PT035H.grib2 2026-05-03 15:02 657K
20260503T12Z_MSC_RDPS_WindV_IsbL-0925_RLatLon0.09_PT035H.grib2 2026-05-03 15:02 666K
20260503T12Z_MSC_RDPS_WindV_IsbL-0950_RLatLon0.09_PT035H.grib2 2026-05-03 15:02 663K
20260503T12Z_MSC_RDPS_WindV_IsbL-0970_RLatLon0.09_PT035H.grib2 2026-05-03 15:02 660K
20260503T12Z_MSC_RDPS_WindV_IsbL-0985_RLatLon0.09_PT035H.grib2 2026-05-03 15:02 796K
20260503T12Z_MSC_RDPS_WindV_IsbL-1000_RLatLon0.09_PT035H.grib2 2026-05-03 15:02 790K
20260503T12Z_MSC_RDPS_WindV_IsbL-1015_RLatLon0.09_PT035H.grib2 2026-05-03 15:02 784K